Regional Weather Roundup
Issued by NWS

Home | Current Version | Previous Version | Graphics & Text | Print | Product List | Glossary On
Versions: 1 2 3 4 5 6 7 8 9 10 11 12 13 14 15 16 17 18 19 20 21 22 23 24 25 26 27 28 29 30 31 32 33 34 35 36 37 38 39 40 41 42 43 44 45 46 47 48 49 50
000
ASUS43 KIND 020209
RWRIN

WEATHER ROUNDUP FOR INDIANA
NATIONAL WEATHER SERVICE INDIANAPOLIS IN
900 PM EST SUN MAR 01 2015

NOTE: "FAIR" INDICATES FEW OR NO CLOUDS BELOW 12,000 FEET WITH NO
SIGNIFICANT WEATHER AND/OR OBSTRUCTIONS TO VISIBILITY.

* - STATION DOES NOT REPORT WEATHER SUCH AS PRECIPITATION OR FOG.

+ - STATION NOT QUALITY CONTROLLED BY THE NATIONAL WEATHER SERVICE.
    USE DATA WITH CAUTION...ESPECIALLY DEWPOINT AND RELATIVE
    HUMIDITY OBSERVATIONS.

INZ001>003-010>013-019-020-020300-
NORTHWEST INDIANA

CITY           SKY/WX    TMP DP  RH WIND       PRES   REMARKS
GARY /AIRPORT/ CLEAR     23  12  63 W12G23    30.32R WCI  12
KNOX *+          N/A     21  10  63 W9        30.29S WCI  11
LA PORTE +     MOCLDY    21  16  80 W8        30.29S WCI  12
MICHIGAN CITY+ MOCLDY    23  12  63 W9        30.30S WCI  13
MONTICELLO +   PTCLDY    17  15  92 W5        30.32R WCI  10
RENSSELAER +   CLOUDY    19  19 100 W7        30.34R WCI  10
VALPARAISO     CLEAR     18  13  80 W12       30.30S WCI   5

$$

LMZ046-743>745-020300-
SOUTHERN LAKE MICHIGAN

STATION/POSITION TIME  TEMP WIND        PRES
                       AIR  DIR/SP/G
                 (UTC) (F)  (DEG/KT/KT) (MB)
MICHIGAN CITY    0200   21  210/ 13/ 16   N/A

$$

INZ004-005-014>016-021>024-020300-
NORTH CENTRAL INDIANA

CITY           SKY/WX    TMP DP  RH WIND       PRES   REMARKS
GOSHEN         CLOUDY    20  16  84 W8        30.27R FOG     WCI  10
LOGANSPORT +   PTCLDY    14  12  92 W7        30.32S WCI   4
PERU/GRISSOM   MOCLDY    14  12  92 W9        30.29S WCI   2
ROCHESTER +    CLOUDY    23  21  93 W8        30.30S WCI  14
SOUTH BEND     CLOUDY    23  16  74 SW12      30.28R WCI  12
WARSAW +       CLOUDY    23  19  86 W6        30.28R WCI  16

$$

INZ006>009-017-018-025>027-020300-
NORTHEAST INDIANA

CITY           SKY/WX    TMP DP  RH WIND       PRES   REMARKS
ANGOLA *+      CLOUDY    21  18  86 VRB5      30.24R WCI  15
AUBURN +       CLOUDY    23  19  86 W3        30.26S
FORT WAYNE     PTCLDY    18  15  88 W10       30.28R WCI   6
HUNTINGTON +   PTCLDY    18  14  82 W7        30.28S WCI   9

$$

INZ028-029-035-036-043>045-051>053-020300-
WEST CENTRAL INDIANA

CITY           SKY/WX    TMP DP  RH WIND       PRES   REMARKS
CRAWFORDSVL +  MOCLDY    22  16  79 NW7       30.33R WCI  13
GREENCASTLE +  CLOUDY    28  21  74 W5        30.32S WCI  23
LAFAYETTE      PTCLDY    18  16  92 W7        30.34S WCI   9
TERRE HAUTE    PTCLDY    25  21  85 NW8       30.36R WCI  16

$$

INZ030>032-037>040-046>048-054>057-064-065-020300-
CENTRAL INDIANA

CITY           SKY/WX    TMP DP  RH WIND       PRES   REMARKS
CP ATTERBURY + CLOUDY    32  28  86 W8        30.31S WCI  25
FRANKFORT +    MOCLDY    16  15  97 W8        30.34R WCI   5
GREENWOOD *+   CLOUDY    28  23  80 NW8       30.31F WCI  20
INDIANAPOLIS   MOCLDY    26  22  84 NW9       30.30S WCI  17
-EAGLE CREEK   MOCLDY    25  22  88 NW6       30.31S WCI  18
KOKOMO *+      MOCLDY    16  10  79 W10       30.31S WCI   3
MARION +       MOCLDY    17  14  89 W8        30.30R WCI   6
MT COMFORT *+  CLOUDY    27  21  80 W12       30.31R WCI  16
SHELBYVILLE    CLOUDY    31  25  78 NW10      30.30S WCI  22
ZIONSVILLE +   MOCLDY    25  20  83 W7        30.31S WCI  17

$$

INZ033-034-041-042-049-050-058-059-020300-
EAST CENTRAL INDIANA

CITY           SKY/WX    TMP DP  RH WIND       PRES   REMARKS
MUNCIE         CLOUDY    25  21  85 W14       30.29S WCI  13

$$

INZ060-061-067>069-081>083-085>088-020300-
SOUTHWEST INDIANA

CITY           SKY/WX    TMP DP  RH WIND       PRES   REMARKS
EVANSVILLE     CLOUDY    33  28  81 NW8       30.37R WCI  26
HUNTINGBURG *+ MOCLDY    32  28  86 NW8       30.36R WCI  25
WASHINGTON +   CLOUDY    31  28  88 NW12      30.36R WCI  22

$$

INZ062-063-066-070>080-084-089>092-020300-
SOUTH CENTRAL AND SOUTHEAST INDIANA

CITY           SKY/WX    TMP DP  RH WIND       PRES   REMARKS
BLOOMINGTON    CLOUDY    30  28  92 NW8       30.32R WCI  22
NORTH VERNON + CLOUDY    32  32 100 NW6       30.30F FOG     WCI  26
SEYMOUR +      CLOUDY    34  32  93 NW7       30.32R WCI  28

$$



USA.gov is the U.S. government's official web portal to all federal, state and local government web resources and services.